Regional Weather Roundup
Issued by NWS

Home | Current Version | Previous Version | Text Only | Print | Product List | Glossary On
Versions: 1 2 3 4 5 6 7 8 9 10 11 12 13 14 15 16 17 18 19 20 21 22 23 24 25 26 27 28 29 30 31 32 33 34 35 36 37 38 39 40 41 42 43 44 45 46 47 48 49 50
000
ASUS42 KKEY 221610
RWRKEY

FLORIDA REGIONAL WEATHER ROUNDUP FOR THE FLORIDA KEYS
NATIONAL WEATHER SERVICE KEY WEST FLORIDA
1200 PM EDT MON SEP 22 2014

...SOUTH FLORIDA AND THE KEYS...

CITY           SKY/WX    TMP DP  RH WIND       PRES   REMARKS
FORT MYERS     PTSUNNY   79  75  87 SE6       30.02F
SW REGIONAL AP PTSUNNY   82  67  60 SE7       30.03F
NAPLES         LGT RAIN  82  77  84 E7        30.01F HX  90
MIAMI          PTSUNNY   87  76  69 SE9       30.04F HX  97
WEST KENDALL   LGT RAIN  89  75  63 SE10      30.03F HX  99
HOMESTEAD      PTSUNNY   85  74  69 E9        30.04F HX  92
MARATHON       CLOUDY    80  73  79 S6        30.04F
BOCA CHICA NAS CLOUDY    85  74  69 E16       30.04S HX  92
KEY WEST INTL  CLOUDY    87  76  69 E12       30.04S HX  97

...INTERNATIONAL WEATHER...

CITY           SKY/WX    TMP DP  RH WIND       PRES   REMARKS
NASSAU BAHAMAS MOSUNNY   90  75  62 SE9       30.02  HX 100
CANCUN MEXICO  PTSUNNY   88  75  66 SE9       29.98F HX  97
COZUMEL MEXICO PTSUNNY   84  77  79 SE9       29.98S HX  94

ADJACENT COASTAL WATERS...

STATION/POSITION TIME  SKY/WX   TEMP    WIND        PRES    WAVE
                                AIR SEA DIR/SP/G            HT/PER
                 (UTC)          (F)     (DEG/KT/KT) (MB)    (FT/S)
PULASKI SHOAL LI 1600            83     120/  5/  6 1017.0R
SAND KEY         1537            82     130/ 15/ 21 1017.3R
SOMBRERO KEY     1600            82      80/  9/ 11 1017.6F
LONG KEY         1600            81 85  150/  6/  7 1018.0F
MOLASSES REEF    1600            79 86   50/ 11/ 15 1017.6F
FOWEY ROCKS      1600            83 85   60/  5/  7 1017.7F
Buoy 42080       NOT AVBL

$$



USA.gov is the U.S. government's official web portal to all federal, state and local government web resources and services.